Location: Asbacherhof
(48.8543°N, 10.7903°E)
Time: 00:12:27
(UTC+00:00)

Meteor 2-10 Rocket - Pass Details

Date: 26 May 2022
Orbit: 733 x 885 km, 81.2° (Epoch: 26 June)

Event Time Altitude Azimuth Distance (km) Brightness Sun altitude
Rises 00:30:02 0° 346° (NNW) 3,468 7.9 -18.0°
Reaches altitude 10° 00:32:32 10° 345° (NNW) 2,510 7.0 -17.9°
Maximum altitude 00:38:13 76° 261° (W) 870 3.6 -17.6°
Enters shadow 00:41:17 27° 181° (S) 1,527 4.5 -17.4°
